This demonstration page uses our WeatherBlox Daily Observations layout. Learn more.

Left ArrowRight Arrow

Hourly Observations for February 18, 2016

Temp ( °F °C ) Dew Point ( °F °C ) Humidity (%) Winds ( mph kmh ) Pressure ( in mb ) Visibility ( mi km ) Precip ( " mm )
12:51 am 00:51 Clear 52 11.1 23 -5 32 32 E 7 11 29.86 1011 10 16.0934 N/A
1:51 am 01:51 Clear 49 9.4 23 -5 36 36 N N/A 29.86 1011 10 16.0934 N/A
2:51 am 02:51 Clear 50 10 23 -5 35 35 ENE 5 7 29.84 1011 10 16.0934 N/A
3:51 am 03:51 Clear 45 7.2 23 -5 42 42 VRB 3 6 29.85 1011 10 16.0934 N/A
4:51 am 04:51 Clear 44 6.7 22 -5.6 41 41 VRB 3 6 29.86 1011 10 16.0934 N/A
5:51 am 05:51 Clear 43 6.1 23 -5 45 45 N N/A 29.89 1012 10 16.0934 N/A
6:51 am 06:51 Clear 39 3.9 23 -5 53 53 N N/A 29.93 1014 10 16.0934 N/A
7:51 am 07:51 Sunny 48 8.9 25 -3.9 41 41 N N/A 29.94 1014 10 16.0934 N/A
8:51 am 08:51 Sunny 57 13.9 26 -3.3 30 30 N N/A 29.96 1015 10 16.0934 N/A
9:51 am 09:51 Sunny 63 17.2 26 -3.3 25 25 N N/A 29.96 1015 10 16.0934 N/A
10:51 am 10:51 Sunny 70 21.1 24 -4.4 18 18 N N/A 29.96 1015 10 16.0934 N/A
11:51 am 11:51 Sunny 75 23.9 24 -4.4 15 15 VRB 3 6 29.93 1014 10 16.0934 N/A
12:51 pm 12:51 Sunny 77 25 22 -5.6 13 13 SW 7 11 29.91 1013 10 16.0934 N/A
1:51 pm 13:51 Sunny 80 26.7 22 -5.6 11 11 undefined N/A 29.89 1012 10 16.0934 N/A
2:51 pm 14:51 Sunny 78 25.6 23 -5 13 13 NNW 8 13 29.88 1012 10 16.0934 N/A
3:51 pm 15:51 Sunny 78 25.6 22 -5.6 12 12 W 3 6 29.87 1011 10 16.0934 N/A
4:51 pm 16:51 Sunny 77 25 24 -4.4 14 14 N N/A 29.88 1012 10 16.0934 N/A
5:51 pm 17:51 Sunny 73 22.8 28 -2.2 19 19 N N/A 29.89 1012 10 16.0934 N/A
6:51 pm 18:51 Clear 69 20.6 28 -2.2 22 22 SSW 3 6 29.93 1013 10 16.0934 N/A
7:51 pm 19:51 Clear 65 18.3 26 -3.3 23 23 ESE 3 6 29.93 1014 10 16.0934 N/A
8:51 pm 20:51 Clear 61 16.1 27 -2.8 27 27 WNW 5 7 29.95 1014 10 16.0934 N/A
9:51 pm 21:51 Clear 66 18.9 26 -3.3 22 22 NW 9 15 29.94 1014 10 16.0934 N/A
10:51 pm 22:51 Clear 61 16.1 27 -2.8 27 27 SSE 3 6 29.93 1014 10 16.0934 N/A
11:51 pm 23:51 Clear 58 14.4 28 -2.2 32 32 SSW 3 6 29.93 1014 10 16.0934 N/A

Powered by AerisWeather